Flag for Slovenia Weather past 2 weeks in Maribor, Slovenia

Now
79 °F

Clear.


Feels Like: 80 °F
Forecast: 61 / 85 °F
Wind: 5 mph from Southwest

Location: Maribor / Slivnica

Current Time: Aug 31, 2015 at 10:32:17 PM

Latest Report: Aug 31, 2015 at 9:00 PM


Visibility: 13 mi

Pressure: 29.91 "Hg

Humidity: 48%

Dew point: 57 °F

Location of MariborLocation

Historic Weather in Maribor — Graph

°F

Maribor temperature yesterday

Maximum temperature yesterday: 89 °F (at 5:00 PM)
Minimum temperature yesterday: 56 °F (at 6:00 AM)
Average temperature yesterday: 74 °F

Past Weeks' High & Low Weather Summary

 TemperatureHumidityPressure
High90 °F (Aug 29, 2:00 PM)97% (Aug 18, 7:00 AM)30.23 "Hg (Aug 18, 7:00 AM)
Low53 °F (Aug 22, 5:00 AM)35% (Aug 29, 5:00 PM)29.71 "Hg (Aug 17, 12:00 AM)
Average68 °F74%30.03 "Hg
* Reported Aug 16 9:00 PM — Aug 31 9:00 PM, Maribor, Weather by CustomWeather, © 2015

Note: Actual official high and low records may vary slightly from our data, if they occured in-between our weather recording intervals... More about our weather records

Advertising

Maribor weather history for previous 24 hours

 ConditionsComfort  
Time TempWeatherWind HumidityBarometerVisibility
9:00 PM
Mon, Aug 31
79 °FClear.5 mph48%29.91 "Hg12 mi
8:00 PM80 °FPassing clouds.5 mph47%29.90 "Hg12 mi
7:00 PM84 °FPassing clouds.5 mph41%29.89 "Hg12 mi
6:00 PM87 °FPassing clouds.6 mph38%29.90 "Hg19 mi
5:00 PM89 °FPassing clouds.7 mph36%29.90 "Hg19 mi
3:00 PM89 °FPassing clouds.8 mph39%29.93 "Hg19 mi
2:00 PM87 °FPassing clouds.6 mph41%29.96 "Hg22 mi
1:00 PM85 °FPassing clouds.7 mph45%29.96 "Hg22 mi
12:00 PM83 °FSunny.7 mph52%29.98 "Hg19 mi
11:00 AM81 °FSunny.5 mph59%30.00 "Hg19 mi
10:00 AM79 °FSunny.3 mph61%30.00 "Hg16 mi
9:00 AM75 °FPassing clouds.3 mph75%30.02 "Hg12 mi
8:00 AM68 °FPassing clouds.1 mph88%30.03 "Hg12 mi
7:00 AM61 °FFog.No wind96%30.05 "Hg7 mi
6:00 AM61 °FFog.1 mph96%30.05 "Hg6 mi
5:00 AM63 °FDuststorm.No wind96%30.04 "Hg1 mi
4:00 AM63 °FDuststorm.No wind93%30.05 "Hg1 mi
3:00 AM64 °FFog.1 mph94%30.07 "Hg2 mi
2:00 AM67 °FFog.1 mph91%30.07 "Hg3 mi
1:00 AM70 °FFog.2 mph84%30.08 "Hg6 mi
12:00 AM72 °FMild.1 mph78%30.08 "Hg7 mi
10:00 PM
Sun, Aug 30
78 °FClear.2 mph65%30.07 "Hg9 mi
Weather by CustomWeather, © 2015

See weather overviewHow to use our weather pages